Location: Newark
(29.9790°N, 31.1340°E)
Time: 15:43:48
(UTC+00:00)

Vanguard 3 - Pass Details

Date: 27 January 2020
Orbit: 508 x 3263 km, 33.3° (Epoch: 17 February)

Event Time Altitude Azimuth Distance (km) Brightness Sun altitude
Rises 20:12:37 0° 289° (WNW) 7,006 12.3 -61.3°
Reaches altitude 10° 20:17:47 10° 287° (WNW) 5,735 11.7 -62.4°
Enters shadow 20:25:58 32° 279° (W) 3,645 10.4 -64.1°
